IRA6052 OIIE-OOMS

Flight info

Callsign IRA6052
Flight time 2h 16m
Altitude 39000
Route OBRIX M715 PURKI W32 BND/N0464F380 M324 PATAT/N0457F340 L519 EGPEP/N0458F350 L313 TARDI/N0450F330 N629 MUSUK T511 MCT
Aircraft A343/H-SDE2E3FGHIJ4J5M1RWXY/LB1D1

Departure

Time 2026-05-05 18:59
Airport Imam Khomeini International Airport (OIIE)

Arrival

Time 2026-05-05 21:15
Airport Muscat International Airport (OOMS)
Time Latitude Longitude Altitude Speed Heading
2026-05-05 18:35 35.41008 51.15596 3270 ft 0 kts 193°
2026-05-05 18:46 35.41013 51.15598 3269 ft 4 kts 193°
2026-05-05 18:47 35.41039 51.15606 3270 ft 4 kts 193°
2026-05-05 18:47 35.41065 51.15611 3271 ft 4 kts 173°
2026-05-05 18:47 35.41090 51.15600 3270 ft 4 kts 137°
2026-05-05 18:47 35.41102 51.15579 3275 ft 1 kts 109°
2026-05-05 18:50 35.41101 51.15583 3270 ft 1 kts 109°
2026-05-05 18:50 35.41099 51.15592 3270 ft 1 kts 109°
2026-05-05 18:50 35.41096 51.15602 3270 ft 1 kts 109°
2026-05-05 18:51 35.41092 51.15615 3271 ft 2 kts 109°
2026-05-05 18:51 35.41088 51.15631 3271 ft 2 kts 109°
2026-05-05 18:51 35.41083 51.15649 3271 ft 2 kts 109°
2026-05-05 18:51 35.41077 51.15670 3272 ft 3 kts 109°
2026-05-05 18:52 35.41070 51.15693 3272 ft 3 kts 109°
2026-05-05 18:52 35.41063 51.15719 3271 ft 3 kts 109°
2026-05-05 18:52 35.41055 51.15748 3271 ft 4 kts 109°
2026-05-05 18:52 35.41046 51.15779 3273 ft 4 kts 109°
2026-05-05 18:53 35.41036 51.15814 3271 ft 4 kts 109°
2026-05-05 18:53 35.41029 51.15841 3273 ft 6 kts 109°
2026-05-05 18:53 35.41014 51.15893 3272 ft 7 kts 109°
2026-05-05 18:53 35.40996 51.15958 3270 ft 9 kts 109°
2026-05-05 18:54 35.40990 51.16030 3273 ft 8 kts 80°
2026-05-05 18:54 35.41022 51.16074 3269 ft 7 kts 27°
2026-05-05 18:54 35.41069 51.16096 3270 ft 8 kts 20°
2026-05-05 18:54 35.41130 51.16123 3269 ft 10 kts 20°
2026-05-05 18:55 35.41197 51.16158 3269 ft 11 kts 29°
2026-05-05 18:55 35.41226 51.16220 3267 ft 7 kts 107°
2026-05-05 18:55 35.41210 51.16280 3268 ft 8 kts 108°
2026-05-05 18:55 35.41191 51.16353 3266 ft 10 kts 108°
2026-05-05 18:56 35.41170 51.16454 3261 ft 14 kts 90°
2026-05-05 18:56 35.41232 51.16539 3261 ft 13 kts 22°
2026-05-05 18:56 35.41302 51.16558 3266 ft 7 kts 345°
2026-05-05 18:56 35.41324 51.16532 3264 ft 2 kts 295°
2026-05-05 18:57 35.41326 51.16526 3264 ft 0 kts 292°
2026-05-05 18:57 35.41347 51.16465 3268 ft 30 kts 292°
2026-05-05 18:58 35.41494 51.15994 3273 ft 86 kts 288°
2026-05-05 18:58 35.41725 51.15101 3290 ft 132 kts 288°
2026-05-05 18:58 35.42066 51.13878 3300 ft 170 kts 289°
2026-05-05 18:58 35.42451 51.12507 3879 ft 165 kts 289°
2026-05-05 18:59 35.42652 51.11131 4363 ft 166 kts 263°
2026-05-05 18:59 35.42095 51.09878 4677 ft 183 kts 216°
2026-05-05 18:59 35.40814 51.09522 4874 ft 207 kts 168°
2026-05-05 18:59 35.39533 51.10477 5124 ft 233 kts 127°
2026-05-05 19:00 35.38866 51.12364 5547 ft 251 kts 104°
2026-05-05 19:00 35.38432 51.14488 6188 ft 261 kts 104°
2026-05-05 19:00 35.37966 51.16665 6927 ft 267 kts 105°
2026-05-05 19:00 35.37453 51.18867 7681 ft 271 kts 106°
2026-05-05 19:01 35.36814 51.21050 8426 ft 275 kts 117°
2026-05-05 19:01 35.35629 51.22884 9172 ft 277 kts 139°
2026-05-05 19:01 35.34126 51.24386 9923 ft 281 kts 142°
2026-05-05 19:01 35.32549 51.25860 10473 ft 293 kts 142°
2026-05-05 19:02 35.30876 51.27421 10804 ft 311 kts 142°
2026-05-05 19:02 35.29109 51.29081 11110 ft 329 kts 142°
2026-05-05 19:02 35.27268 51.30815 11584 ft 339 kts 142°
2026-05-05 19:02 35.25384 51.32593 12208 ft 344 kts 142°
2026-05-05 19:03 35.23495 51.34411 12858 ft 348 kts 139°
2026-05-05 19:03 35.21874 51.36577 13498 ft 352 kts 123°
2026-05-05 19:03 35.20854 51.39299 14155 ft 355 kts 105°
2026-05-05 19:03 35.20366 51.42275 14810 ft 359 kts 99°
2026-05-05 19:04 35.19985 51.45300 15444 ft 362 kts 98°
2026-05-05 19:04 35.19603 51.48361 16069 ft 366 kts 98°
2026-05-05 19:04 35.19181 51.51438 16691 ft 369 kts 101°
2026-05-05 19:04 35.18639 51.54517 17289 ft 372 kts 104°
2026-05-05 19:05 35.17951 51.57578 17880 ft 375 kts 107°
2026-05-05 19:05 35.17115 51.60616 18474 ft 379 kts 110°
2026-05-05 19:05 35.16131 51.63619 19021 ft 382 kts 113°
2026-05-05 19:05 35.14999 51.66571 19581 ft 385 kts 117°
2026-05-05 19:06 35.13723 51.69461 20109 ft 388 kts 120°
2026-05-05 19:06 35.12303 51.72278 20647 ft 391 kts 123°
2026-05-05 19:06 35.10737 51.75015 21149 ft 394 kts 127°
2026-05-05 19:06 35.09033 51.77655 21662 ft 397 kts 130°
2026-05-05 19:07 35.07189 51.80190 22147 ft 400 kts 133°
2026-05-05 19:07 35.05212 51.82603 22609 ft 403 kts 137°
2026-05-05 19:07 35.03134 51.84914 23065 ft 406 kts 138°
2026-05-05 19:07 35.01020 51.87218 23502 ft 409 kts 138°
2026-05-05 19:08 34.98892 51.89538 23927 ft 412 kts 138°
2026-05-05 19:08 34.96752 51.91876 24340 ft 414 kts 138°
2026-05-05 19:08 34.94601 51.94231 24734 ft 417 kts 138°
2026-05-05 19:08 34.92431 51.96606 25129 ft 420 kts 138°
2026-05-05 19:09 34.90250 51.98993 25512 ft 423 kts 138°
2026-05-05 19:09 34.88057 52.01393 25877 ft 425 kts 138°
2026-05-05 19:09 34.85849 52.03807 26258 ft 427 kts 138°
2026-05-05 19:09 34.83631 52.06231 26623 ft 430 kts 138°
2026-05-05 19:10 34.81403 52.08664 26979 ft 432 kts 138°
2026-05-05 19:10 34.79164 52.11108 27310 ft 434 kts 138°
2026-05-05 19:10 34.76910 52.13566 27630 ft 436 kts 138°
2026-05-05 19:10 34.74648 52.16039 27940 ft 439 kts 138°
2026-05-05 19:11 34.72379 52.18542 28234 ft 441 kts 137°
2026-05-05 19:11 34.70102 52.21063 28492 ft 444 kts 137°
2026-05-05 19:11 34.67807 52.23604 28748 ft 448 kts 137°
2026-05-05 19:11 34.65499 52.26156 29040 ft 450 kts 137°
2026-05-05 19:12 34.63182 52.28714 29357 ft 451 kts 137°
2026-05-05 19:12 34.60853 52.31283 29657 ft 452 kts 137°
2026-05-05 19:12 34.58521 52.33850 29946 ft 454 kts 137°
2026-05-05 19:12 34.56177 52.36429 30227 ft 455 kts 137°
2026-05-05 19:13 34.53829 52.39008 30498 ft 457 kts 138°
2026-05-05 19:13 34.51472 52.41597 30765 ft 458 kts 138°
2026-05-05 19:13 34.49106 52.44192 31008 ft 460 kts 138°
2026-05-05 19:13 34.46729 52.46798 31243 ft 461 kts 138°
2026-05-05 19:14 34.44341 52.49413 31467 ft 463 kts 138°
2026-05-05 19:14 34.41949 52.52032 31741 ft 464 kts 138°
2026-05-05 19:14 34.39561 52.54644 32083 ft 462 kts 138°
2026-05-05 19:14 34.37178 52.57248 32418 ft 461 kts 138°
2026-05-05 19:15 34.34801 52.59844 32731 ft 460 kts 138°
2026-05-05 19:15 34.32429 52.62432 33026 ft 459 kts 138°
2026-05-05 19:15 34.30059 52.65015 33315 ft 458 kts 138°
2026-05-05 19:15 34.27726 52.67556 33590 ft 458 kts 138°
2026-05-05 19:16 34.25363 52.70129 33865 ft 457 kts 138°
2026-05-05 19:16 34.23002 52.72697 34134 ft 456 kts 138°
2026-05-05 19:16 34.20643 52.75261 34395 ft 456 kts 138°
2026-05-05 19:16 34.18288 52.77818 34646 ft 455 kts 138°
2026-05-05 19:17 34.15901 52.80408 34892 ft 455 kts 138°
2026-05-05 19:17 34.13579 52.82925 35123 ft 455 kts 138°
2026-05-05 19:17 34.11227 52.85474 35365 ft 454 kts 138°
2026-05-05 19:17 34.08876 52.88018 35585 ft 454 kts 138°
2026-05-05 19:18 34.06528 52.90558 35806 ft 454 kts 138°
2026-05-05 19:18 34.04179 52.93097 36013 ft 453 kts 138°
2026-05-05 19:18 34.01833 52.95631 36211 ft 453 kts 138°
2026-05-05 19:18 33.99483 52.98167 36394 ft 453 kts 138°
2026-05-05 19:19 33.97135 53.00700 36579 ft 454 kts 138°
2026-05-05 19:19 33.94783 53.03234 36751 ft 454 kts 138°
2026-05-05 19:19 33.92429 53.05768 36903 ft 454 kts 138°
2026-05-05 19:19 33.90070 53.08305 37076 ft 455 kts 138°
2026-05-05 19:20 33.87711 53.10842 37232 ft 455 kts 138°
2026-05-05 19:20 33.85352 53.13376 37400 ft 455 kts 138°
2026-05-05 19:20 33.82987 53.15914 37557 ft 455 kts 138°
2026-05-05 19:20 33.80627 53.18446 37738 ft 455 kts 138°
2026-05-05 19:21 33.78265 53.20977 37898 ft 455 kts 138°
2026-05-05 19:21 33.75903 53.23506 38054 ft 455 kts 138°
2026-05-05 19:21 33.73543 53.26032 38207 ft 454 kts 138°
2026-05-05 19:21 33.71180 53.28558 38349 ft 455 kts 138°
2026-05-05 19:22 33.68816 53.31083 38475 ft 455 kts 138°
2026-05-05 19:22 33.66453 53.33606 38607 ft 455 kts 138°
2026-05-05 19:22 33.64084 53.36134 38739 ft 455 kts 138°
2026-05-05 19:22 33.61718 53.38656 38871 ft 455 kts 138°
2026-05-05 19:23 33.56968 53.43714 39002 ft 459 kts 138°
2026-05-05 19:23 33.52172 53.48810 39001 ft 461 kts 139°
2026-05-05 19:24 33.47372 53.53874 39000 ft 459 kts 139°
2026-05-05 19:24 33.42605 53.58896 39000 ft 459 kts 139°
2026-05-05 19:25 33.37970 53.64156 39000 ft 460 kts 129°
2026-05-05 19:25 33.34091 53.70251 39000 ft 462 kts 126°
2026-05-05 19:26 33.30368 53.76510 38998 ft 461 kts 125°
2026-05-05 19:26 33.26680 53.82765 39001 ft 460 kts 125°
2026-05-05 19:27 33.22919 53.88944 38998 ft 460 kts 130°
2026-05-05 19:27 33.18137 53.93955 38999 ft 458 kts 149°
2026-05-05 19:28 33.12259 53.96772 38997 ft 457 kts 166°
2026-05-05 19:28 33.06053 53.98423 38997 ft 458 kts 168°
2026-05-05 19:29 32.99799 53.99910 38998 ft 459 kts 168°
2026-05-05 19:29 32.93546 54.01423 38994 ft 459 kts 168°
2026-05-05 19:30 32.87299 54.02973 39001 ft 459 kts 168°
2026-05-05 19:30 32.81065 54.04570 38997 ft 458 kts 167°
2026-05-05 19:31 32.74845 54.06237 38997 ft 457 kts 167°
2026-05-05 19:31 32.68640 54.07900 39001 ft 457 kts 167°
2026-05-05 19:32 32.62440 54.09548 39001 ft 457 kts 167°
2026-05-05 19:32 32.56238 54.11187 38994 ft 457 kts 167°
2026-05-05 19:33 32.50038 54.12823 38996 ft 457 kts 167°
2026-05-05 19:33 32.43827 54.14459 38996 ft 457 kts 167°
2026-05-05 19:34 32.37614 54.16096 38999 ft 458 kts 167°
2026-05-05 19:35 32.28277 54.18491 38996 ft 458 kts 168°
2026-05-05 19:35 32.22048 54.20068 39001 ft 458 kts 168°
2026-05-05 19:36 32.15822 54.21650 38996 ft 458 kts 168°
2026-05-05 19:36 32.09592 54.23235 39001 ft 458 kts 168°
2026-05-05 19:37 32.04411 54.24553 38994 ft 458 kts 168°
2026-05-05 19:37 31.97128 54.26401 39000 ft 458 kts 168°
2026-05-05 19:38 31.91954 54.27748 38997 ft 458 kts 165°
2026-05-05 19:38 31.85078 54.31062 39004 ft 458 kts 154°
2026-05-05 19:39 31.80346 54.33875 38999 ft 459 kts 153°
2026-05-05 19:39 31.74680 54.37336 39000 ft 459 kts 152°
2026-05-05 19:40 31.68080 54.41346 38996 ft 460 kts 153°
2026-05-05 19:40 31.62368 54.44788 38996 ft 462 kts 153°
2026-05-05 19:41 31.57580 54.47663 39004 ft 461 kts 153°
2026-05-05 19:41 31.51877 54.51082 38997 ft 460 kts 153°
2026-05-05 19:42 31.46180 54.54494 38995 ft 460 kts 153°
2026-05-05 19:42 31.40470 54.57915 38999 ft 461 kts 153°
2026-05-05 19:43 31.34801 54.61310 38997 ft 460 kts 153°
2026-05-05 19:43 31.29112 54.64712 39006 ft 459 kts 153°
2026-05-05 19:44 31.23431 54.68105 38999 ft 459 kts 153°
2026-05-05 19:44 31.17745 54.71495 38996 ft 459 kts 153°
2026-05-05 19:45 31.12057 54.74883 38999 ft 459 kts 153°
2026-05-05 19:45 31.06375 54.78262 38997 ft 459 kts 153°
2026-05-05 19:46 31.00685 54.81641 39003 ft 459 kts 153°
2026-05-05 19:46 30.94999 54.85014 39001 ft 459 kts 153°
2026-05-05 19:47 30.89314 54.88382 39009 ft 458 kts 153°
2026-05-05 19:47 30.83627 54.91745 39004 ft 458 kts 153°
2026-05-05 19:48 30.77935 54.95108 39000 ft 459 kts 153°
2026-05-05 19:48 30.72236 54.98469 38996 ft 460 kts 153°
2026-05-05 19:49 30.66519 55.01819 39002 ft 461 kts 153°
2026-05-05 19:49 30.60786 55.05173 39005 ft 461 kts 153°
2026-05-05 19:50 30.55050 55.08527 38997 ft 462 kts 153°
2026-05-05 19:50 30.49314 55.11877 39002 ft 461 kts 153°
2026-05-05 19:51 30.43574 55.15226 39002 ft 463 kts 153°
2026-05-05 19:51 30.37813 55.18583 39007 ft 464 kts 153°
2026-05-05 19:52 30.32043 55.21941 38994 ft 464 kts 153°
2026-05-05 19:52 30.26277 55.25292 39002 ft 464 kts 153°
2026-05-05 19:53 30.20549 55.28616 38994 ft 463 kts 153°
2026-05-05 19:53 30.14807 55.31944 39005 ft 461 kts 153°
2026-05-05 19:54 30.09076 55.35261 38997 ft 460 kts 153°
2026-05-05 19:54 30.03353 55.38570 39004 ft 460 kts 153°
2026-05-05 19:55 29.97636 55.41874 39002 ft 459 kts 153°
2026-05-05 19:55 29.91920 55.45173 39002 ft 459 kts 153°
2026-05-05 19:56 29.86203 55.48468 39003 ft 460 kts 153°
2026-05-05 19:56 29.80481 55.51762 39003 ft 460 kts 153°
2026-05-05 19:57 29.74759 55.55052 39002 ft 460 kts 153°
2026-05-05 19:57 29.69036 55.58338 39002 ft 459 kts 153°
2026-05-05 19:58 29.63328 55.61612 38996 ft 459 kts 153°
2026-05-05 19:58 29.57598 55.64882 38999 ft 459 kts 155°
2026-05-05 19:59 29.51573 55.67279 38997 ft 459 kts 164°
2026-05-05 19:59 29.45418 55.69214 39002 ft 459 kts 165°
2026-05-05 20:00 29.39286 55.71059 38999 ft 459 kts 165°
2026-05-05 20:00 29.33109 55.72925 39002 ft 459 kts 165°
2026-05-05 20:01 29.26947 55.74801 38999 ft 458 kts 165°
2026-05-05 20:01 29.20780 55.76682 39000 ft 458 kts 165°
2026-05-05 20:02 29.14616 55.78561 38997 ft 459 kts 165°
2026-05-05 20:02 29.08448 55.80438 38999 ft 458 kts 165°
2026-05-05 20:03 29.02282 55.82312 38999 ft 458 kts 165°
2026-05-05 20:03 28.96118 55.84183 39001 ft 458 kts 165°
2026-05-05 20:04 28.89951 55.86053 38997 ft 459 kts 165°
2026-05-05 20:04 28.83783 55.87924 39001 ft 459 kts 165°
2026-05-05 20:05 28.77606 55.89790 39002 ft 460 kts 165°
2026-05-05 20:05 28.71416 55.91654 39001 ft 459 kts 165°
2026-05-05 20:06 28.65250 55.93510 38998 ft 458 kts 165°
2026-05-05 20:06 28.59092 55.95362 39000 ft 457 kts 165°
2026-05-05 20:07 28.52952 55.97208 39003 ft 456 kts 165°
2026-05-05 20:07 28.46819 55.99050 38999 ft 455 kts 165°
2026-05-05 20:08 28.40691 56.00887 39002 ft 456 kts 165°
2026-05-05 20:08 28.34551 56.02726 39002 ft 457 kts 165°
2026-05-05 20:09 28.28408 56.04564 38996 ft 456 kts 165°
2026-05-05 20:09 28.22275 56.06396 38998 ft 454 kts 165°
2026-05-05 20:10 28.16180 56.08215 38996 ft 452 kts 165°
2026-05-05 20:10 28.10129 56.10023 38994 ft 453 kts 165°
2026-05-05 20:11 28.03983 56.11845 38997 ft 455 kts 165°
2026-05-05 20:11 27.97846 56.13663 39001 ft 457 kts 165°
2026-05-05 20:12 27.91743 56.15472 39001 ft 456 kts 165°
2026-05-05 20:12 27.85561 56.17303 38999 ft 456 kts 165°
2026-05-05 20:13 27.79457 56.19108 39006 ft 456 kts 165°
2026-05-05 20:13 27.73344 56.20914 38996 ft 453 kts 165°
2026-05-05 20:14 27.67265 56.22707 39004 ft 451 kts 165°
2026-05-05 20:14 27.61204 56.24492 39002 ft 450 kts 165°
2026-05-05 20:15 27.55147 56.26275 38999 ft 450 kts 165°
2026-05-05 20:15 27.49093 56.28054 39004 ft 449 kts 165°
2026-05-05 20:16 27.43060 56.29826 39004 ft 448 kts 165°
2026-05-05 20:16 27.37024 56.31597 39005 ft 448 kts 165°
2026-05-05 20:17 27.31001 56.33364 38995 ft 447 kts 165°
2026-05-05 20:17 27.24963 56.35075 38993 ft 447 kts 169°
2026-05-05 20:18 27.18780 56.35391 38996 ft 446 kts 187°
2026-05-05 20:18 27.12824 56.33552 39002 ft 445 kts 201°
2026-05-05 20:19 27.07079 56.30920 38996 ft 446 kts 203°
2026-05-05 20:19 27.01365 56.28188 39004 ft 446 kts 203°
2026-05-05 20:20 26.95639 56.25485 38998 ft 446 kts 202°
2026-05-05 20:20 26.89903 56.22815 39002 ft 447 kts 202°
2026-05-05 20:21 26.84158 56.20155 39003 ft 446 kts 202°
2026-05-05 20:21 26.78419 56.17501 38998 ft 446 kts 202°
2026-05-05 20:22 26.72614 56.15043 39003 ft 446 kts 196°
2026-05-05 20:22 26.66630 56.13176 38997 ft 446 kts 195°
2026-05-05 20:23 26.60621 56.11421 39006 ft 446 kts 194°
2026-05-05 20:23 26.55621 56.09975 38998 ft 446 kts 194°
2026-05-05 20:24 26.48634 56.07943 38996 ft 446 kts 194°
2026-05-05 20:24 26.42625 56.06189 38998 ft 446 kts 194°
2026-05-05 20:25 26.36616 56.04436 39003 ft 446 kts 194°
2026-05-05 20:25 26.30606 56.02684 39005 ft 446 kts 194°
2026-05-05 20:26 26.24525 56.01311 38997 ft 446 kts 188°
2026-05-05 20:26 26.19366 56.00522 38996 ft 446 kts 187°
2026-05-05 20:27 26.12203 55.99520 38999 ft 446 kts 187°
2026-05-05 20:27 26.06041 55.98664 38997 ft 446 kts 187°
2026-05-05 20:28 26.00919 55.97946 38996 ft 446 kts 187°
2026-05-05 20:28 25.94732 55.97494 39008 ft 446 kts 178°
2026-05-05 20:29 25.88530 55.97860 38996 ft 446 kts 176°
2026-05-05 20:29 25.82341 55.98365 39003 ft 446 kts 175°
2026-05-05 20:30 25.76139 55.98883 39002 ft 446 kts 175°
2026-05-05 20:30 25.69941 55.99384 38997 ft 447 kts 176°
2026-05-05 20:31 25.63720 55.99795 39006 ft 451 kts 177°
2026-05-05 20:31 25.57411 56.00276 38998 ft 458 kts 175°
2026-05-05 20:32 25.51014 56.00844 39003 ft 465 kts 175°
2026-05-05 20:32 25.44516 56.01390 39003 ft 471 kts 176°
2026-05-05 20:33 25.37944 56.01914 38999 ft 474 kts 176°
2026-05-05 20:33 25.31360 56.02431 39008 ft 474 kts 176°
2026-05-05 20:34 25.24780 56.02948 39000 ft 474 kts 176°
2026-05-05 20:34 25.18205 56.03573 38995 ft 474 kts 173°
2026-05-05 20:35 25.11666 56.04590 38999 ft 475 kts 171°
2026-05-05 20:35 25.05126 56.05654 39003 ft 476 kts 172°
2026-05-05 20:36 24.98562 56.06662 39005 ft 476 kts 172°
2026-05-05 20:36 24.91987 56.07635 39002 ft 476 kts 172°
2026-05-05 20:37 24.85432 56.08575 38998 ft 476 kts 172°
2026-05-05 20:37 24.78865 56.09516 39002 ft 476 kts 172°
2026-05-05 20:38 24.72282 56.10465 38996 ft 478 kts 172°
2026-05-05 20:38 24.65689 56.11418 38996 ft 477 kts 172°
2026-05-05 20:38 24.62449 56.12202 39001 ft 477 kts 161°
2026-05-05 20:39 24.59457 56.13666 38997 ft 479 kts 148°
2026-05-05 20:39 24.56799 56.15865 39002 ft 479 kts 136°
2026-05-05 20:39 24.54528 56.18557 39004 ft 480 kts 131°
2026-05-05 20:40 24.50175 56.24090 39000 ft 478 kts 130°
2026-05-05 20:40 24.45900 56.29683 38998 ft 477 kts 130°
2026-05-05 20:41 24.41603 56.35221 39004 ft 476 kts 130°
2026-05-05 20:41 24.37292 56.40709 39000 ft 474 kts 131°
2026-05-05 20:42 24.32975 56.46178 38997 ft 474 kts 131°
2026-05-05 20:42 24.28672 56.51658 38996 ft 474 kts 129°
2026-05-05 20:43 24.24749 56.57456 38997 ft 474 kts 125°
2026-05-05 20:43 24.20976 56.63376 39006 ft 474 kts 125°
2026-05-05 20:44 24.17158 56.69249 38997 ft 473 kts 126°
2026-05-05 20:44 24.13288 56.75090 38998 ft 473 kts 126°
2026-05-05 20:45 24.08620 56.82083 38996 ft 473 kts 126°
2026-05-05 20:45 24.04739 56.87894 39026 ft 473 kts 126°
2026-05-05 20:46 24.00855 56.93715 38780 ft 475 kts 126°
2026-05-05 20:46 23.98905 56.96626 38603 ft 474 kts 126°
2026-05-05 20:46 23.96961 56.99527 38593 ft 473 kts 126°
2026-05-05 20:47 23.93072 57.05325 38593 ft 473 kts 126°
2026-05-05 20:47 23.89181 57.11122 38594 ft 473 kts 126°
2026-05-05 20:48 23.85285 57.16942 37684 ft 476 kts 125°
2026-05-05 20:48 23.83428 57.19916 36919 ft 472 kts 123°
2026-05-05 20:48 23.81715 57.22942 36174 ft 464 kts 120°
2026-05-05 20:49 23.80169 57.25976 35463 ft 451 kts 117°
2026-05-05 20:49 23.78780 57.29025 34772 ft 447 kts 115°
2026-05-05 20:49 23.77527 57.32134 34104 ft 448 kts 112°
2026-05-05 20:49 23.76402 57.35313 33441 ft 449 kts 109°
2026-05-05 20:50 23.75411 57.38550 32788 ft 450 kts 107°
2026-05-05 20:50 23.74553 57.41835 32137 ft 451 kts 104°
2026-05-05 20:50 23.73829 57.45169 31466 ft 452 kts 102°
2026-05-05 20:50 23.73240 57.48538 30806 ft 451 kts 99°
2026-05-05 20:51 23.72788 57.51923 30150 ft 450 kts 97°
2026-05-05 20:51 23.72474 57.55274 29511 ft 449 kts 94°
2026-05-05 20:51 23.72289 57.58718 28859 ft 448 kts 92°
2026-05-05 20:51 23.72239 57.62070 28230 ft 447 kts 89°
2026-05-05 20:52 23.72321 57.65496 27596 ft 445 kts 87°
2026-05-05 20:52 23.72528 57.68818 26973 ft 444 kts 85°
2026-05-05 20:52 23.72863 57.72154 26351 ft 435 kts 82°
2026-05-05 20:52 23.73303 57.75314 25758 ft 409 kts 80°
2026-05-05 20:53 23.73716 57.78277 25196 ft 387 kts 84°
2026-05-05 20:53 23.73921 57.81131 24628 ft 368 kts 86°
2026-05-05 20:53 23.74058 57.83860 24064 ft 353 kts 87°
2026-05-05 20:53 23.74163 57.86480 23509 ft 339 kts 88°
2026-05-05 20:54 23.74240 57.89012 22980 ft 328 kts 88°
2026-05-05 20:54 23.74288 57.91458 22461 ft 318 kts 89°
2026-05-05 20:54 23.74309 57.93851 21957 ft 313 kts 90°
2026-05-05 20:54 23.74303 57.96221 21469 ft 311 kts 90°
2026-05-05 20:55 23.74271 57.98576 20985 ft 309 kts 91°
2026-05-05 20:55 23.74211 58.00908 20508 ft 307 kts 92°
2026-05-05 20:55 23.74124 58.03225 20040 ft 304 kts 92°
2026-05-05 20:55 23.74010 58.05525 19567 ft 302 kts 94°
2026-05-05 20:56 23.73868 58.07802 19104 ft 300 kts 94°
2026-05-05 20:56 23.73698 58.10063 18646 ft 298 kts 95°
2026-05-05 20:56 23.73501 58.12303 18201 ft 296 kts 96°
2026-05-05 20:56 23.73276 58.14525 17743 ft 294 kts 97°
2026-05-05 20:57 23.73027 58.16728 17298 ft 292 kts 97°
2026-05-05 20:57 23.72767 58.18914 16857 ft 289 kts 99°
2026-05-05 20:57 23.72444 58.21075 16431 ft 288 kts 99°
2026-05-05 20:57 23.72104 58.23259 16021 ft 302 kts 99°
2026-05-05 20:58 23.71742 58.25602 15609 ft 323 kts 98°
2026-05-05 20:58 23.71492 58.28103 15188 ft 340 kts 95°
2026-05-05 20:58 23.71285 58.30722 14763 ft 351 kts 94°
2026-05-05 20:58 23.71106 58.33382 14320 ft 351 kts 94°
2026-05-05 20:59 23.70946 58.36025 13891 ft 344 kts 94°
2026-05-05 20:59 23.70801 58.38508 13469 ft 321 kts 94°
2026-05-05 20:59 23.70663 58.40895 13022 ft 302 kts 94°
2026-05-05 20:59 23.70533 58.43106 12603 ft 292 kts 94°
2026-05-05 21:00 23.70401 58.45302 12177 ft 289 kts 94°
2026-05-05 21:00 23.70269 58.47479 11752 ft 287 kts 94°
2026-05-05 21:00 23.70136 58.49644 11323 ft 285 kts 94°
2026-05-05 21:00 23.70003 58.51795 10901 ft 283 kts 94°
2026-05-05 21:01 23.69871 58.53929 10476 ft 281 kts 94°
2026-05-05 21:01 23.69738 58.56053 10051 ft 280 kts 94°
2026-05-05 21:01 23.69606 58.58162 9658 ft 278 kts 94°
2026-05-05 21:01 23.69476 58.60251 9357 ft 271 kts 94°
2026-05-05 21:02 23.69351 58.62238 9090 ft 254 kts 94°
2026-05-05 21:02 23.69234 58.64103 8819 ft 240 kts 94°
2026-05-05 21:02 23.69121 58.65892 8561 ft 235 kts 94°
2026-05-05 21:02 23.69009 58.67666 8316 ft 234 kts 94°
2026-05-05 21:03 23.68898 58.69433 8071 ft 233 kts 94°
2026-05-05 21:03 23.68787 58.71190 7815 ft 230 kts 94°
2026-05-05 21:03 23.68679 58.72888 7554 ft 220 kts 94°
2026-05-05 21:03 23.68574 58.74545 7301 ft 218 kts 94°
2026-05-05 21:04 23.68409 58.76184 7046 ft 217 kts 102°
2026-05-05 21:04 23.67917 58.77734 6800 ft 217 kts 119°
2026-05-05 21:04 23.66822 58.78819 6544 ft 217 kts 160°
2026-05-05 21:04 23.65355 58.78827 6293 ft 215 kts 203°
2026-05-05 21:05 23.64277 58.77761 6042 ft 214 kts 245°
2026-05-05 21:05 23.64150 58.76190 5792 ft 212 kts 288°
2026-05-05 21:05 23.64786 58.74746 5558 ft 212 kts 302°
2026-05-05 21:05 23.65581 58.73392 5301 ft 212 kts 300°
2026-05-05 21:06 23.65845 58.71836 5041 ft 211 kts 263°
2026-05-05 21:06 23.65557 58.70267 4819 ft 212 kts 256°
2026-05-05 21:06 23.65178 58.68714 4565 ft 212 kts 255°
2026-05-05 21:06 23.64782 58.67158 4311 ft 213 kts 254°
2026-05-05 21:07 23.64384 58.65602 4065 ft 213 kts 254°
2026-05-05 21:07 23.63984 58.64044 3813 ft 213 kts 254°
2026-05-05 21:07 23.63584 58.62485 3556 ft 213 kts 254°
2026-05-05 21:07 23.63189 58.60948 3303 ft 208 kts 254°
2026-05-05 21:08 23.62808 58.59466 3057 ft 196 kts 254°
2026-05-05 21:08 23.62452 58.58083 2831 ft 184 kts 254°
2026-05-05 21:08 23.62116 58.56776 2571 ft 175 kts 254°
2026-05-05 21:08 23.61766 58.55560 2414 ft 160 kts 250°
2026-05-05 21:09 23.61478 58.54453 2400 ft 152 kts 259°
2026-05-05 21:09 23.61344 58.53309 2425 ft 151 kts 264°
2026-05-05 21:09 23.61239 58.52175 2423 ft 150 kts 264°
2026-05-05 21:09 23.61151 58.51039 2417 ft 150 kts 265°
2026-05-05 21:10 23.61060 58.49920 2415 ft 148 kts 264°
2026-05-05 21:10 23.60960 58.48807 2417 ft 147 kts 264°
2026-05-05 21:10 23.60858 58.47699 2418 ft 147 kts 264°
2026-05-05 21:10 23.60760 58.46595 2419 ft 147 kts 264°
2026-05-05 21:11 23.60667 58.45488 2419 ft 147 kts 265°
2026-05-05 21:11 23.60577 58.44380 2419 ft 147 kts 265°
2026-05-05 21:11 23.60490 58.43266 2315 ft 147 kts 265°
2026-05-05 21:11 23.60405 58.42156 2112 ft 147 kts 265°
2026-05-05 21:12 23.60316 58.41051 1901 ft 146 kts 265°
2026-05-05 21:12 23.60228 58.39949 1719 ft 146 kts 265°
2026-05-05 21:12 23.60140 58.38852 1520 ft 145 kts 265°
2026-05-05 21:12 23.60053 58.37755 1336 ft 145 kts 265°
2026-05-05 21:13 23.59966 58.36664 1140 ft 144 kts 265°
2026-05-05 21:13 23.59879 58.35574 947 ft 144 kts 265°
2026-05-05 21:13 23.59792 58.34487 754 ft 144 kts 265°
2026-05-05 21:13 23.59705 58.33405 569 ft 143 kts 265°
2026-05-05 21:14 23.59619 58.32323 375 ft 143 kts 265°
2026-05-05 21:14 23.59533 58.31253 187 ft 142 kts 265°
2026-05-05 21:14 23.59476 58.30535 70 ft 141 kts 265°
2026-05-05 21:14 23.59397 58.29553 48 ft 109 kts 265°
2026-05-05 21:15 23.59353 58.29035 47 ft 42 kts 264°
2026-05-05 21:15 23.59326 58.28730 48 ft 39 kts 264°
2026-05-05 21:15 23.59301 58.28442 48 ft 34 kts 264°
2026-05-05 21:15 23.59243 58.28206 48 ft 28 kts 220°
2026-05-05 21:16 23.59077 58.28195 48 ft 23 kts 174°
2026-05-05 21:16 23.58947 58.28204 48 ft 8 kts 195°
2026-05-05 21:16 23.58911 58.28179 48 ft 7 kts 213°
2026-05-05 21:16 23.58867 58.28148 48 ft 6 kts 216°
2026-05-05 21:17 23.58866 58.28147 48 ft 0 kts 218°